Regional Weather Roundup
Issued by NWS

Home | Current Version | Previous Version | Text Only | Print | Product List | Glossary On
Versions: 1 2 3 4 5 6 7 8 9 10 11 12 13 14 15 16 17 18 19 20 21 22 23 24 25 26 27 28 29 30 31 32 33 34 35 36 37 38 39 40 41 42 43 44 45 46 47 48 49 50
000
ASUS43 KOAX 202302
RWRNE

WEATHER ROUNDUP FOR NEBRASKA
NATIONAL WEATHER SERVICE OMAHA NE
500 PM CST SAT DEC 20 2014

NOTES: SATELLITE DATA IS BEING USED TO AUGMENT CLOUD COVER ABOVE
       12000 FEET.
       "FAIR" INDICATES FEW OR NO CLOUDS BELOW 12,000 FEET WITH NO
       SIGNIFICANT WEATHER AND/OR OBSTRUCTIONS TO VISIBILITY.

  * THESE STATIONS DO NOT REPORT WEATHER SUCH AS RAIN...SNOW OR FOG.

NEZ001>004-019>022-054>056-210000-
NEBRASKA PANHANDLE

CITY           SKY/WX    TMP DP  RH WIND       PRES   REMARKS
SCOTTSBLUFF    CLEAR     38  28  67 CALM      29.92S
ALLIANCE       PTCLDY    38  30  73 W6        29.91S WCI  33
SIDNEY         CLEAR     42  27  55 NW3       29.95R
$$

NEZ057>060-069>072-079>082-210000-
SOUTHWEST NEBRASKA

CITY           SKY/WX    TMP DP  RH WIND       PRES   REMARKS
NORTH PLATTE   CLOUDY    37  29  72 CALM      29.94S
IMPERIAL       CLOUDY    45  29  53 W5        29.95F
MCCOOK         CLOUDY    44  30  57 CALM      29.97S
$$

NEZ005>010-023>029-035>040-094-210000-
NORTH CENTRAL NEBRASKA

CITY           SKY/WX    TMP DP  RH WIND       PRES   REMARKS
VALENTINE      CLOUDY    37  30  75 W5        29.90S WCI  33
BROKEN BOW     CLOUDY    40  30  67 CALM      29.93S
$$

NEZ041-046>049-061>064-073>077-083>087-210000-
SOUTH CENTRAL NEBRASKA

CITY           SKY/WX    TMP DP  RH WIND       PRES   REMARKS
GRAND ISLAND   CLOUDY    35  32  88 SE6       29.99F WCI  30
HASTINGS       CLOUDY    41  32  70 SE7       29.98S
KEARNEY *      MOCLDY    34  28  80 SE7       29.98S WCI  28
$$

NEZ011>018-030>034-042>045-210000-
NORTHEAST NEBRASKA

CITY           SKY/WX    TMP DP  RH WIND       PRES   REMARKS
NORFOLK        CLOUDY    33  31  92 S12       30.01S FOG     WCI  24
COLUMBUS *     CLOUDY    30  27  86 SE8       30.04F WCI  23
TEKAMAH        CLOUDY    33  31  92 S9        30.08R FOG     WCI  25
$$

NEZ050>053-065>068-078-088>093-210000-
SOUTHEAST NEBRASKA

CITY           SKY/WX    TMP DP  RH WIND       PRES   REMARKS
LINCOLN        CLOUDY    36  31  82 S7        30.08R HAZE    WCI  30
OMAHA EPPLEY   CLOUDY    34  32  92 S10       30.09S FOG     WCI  26
FALLS CITY     CLOUDY    36  33  89 CALM      30.09S FOG
$$

NEZ044-045-051>053-067-210000-
OMAHA AREA

CITY           SKY/WX    TMP DP  RH WIND       PRES   REMARKS
OMAHA EPPLEY   CLOUDY    34  32  92 S10       30.09S FOG     WCI  26
OFFUTT AFB     CLOUDY    34  32  93 SE7       30.08S WCI  28
$$



USA.gov is the U.S. government's official web portal to all federal, state and local government web resources and services.